Weather History for Tulsa, OK

Change the Weather History Date:

Saturday, September 21, 2013

  Actual Average Record
Temperature  
Mean Temperature 66 °F 71 °F  
Max Temperature 80 °F 82 °F 98 °F (1980)
Min Temperature 52 °F 60 °F 38 °F (1918)
Degree Days  
Heating Degree Days 0 1  
Month to date heating degree days 0 7  
Since 1 July heating degree days 0 7  
Cooling Degree Days 1 7  
Month to date cooling degree days 301 215  
Year to date cooling degree days 1930 1916  
Growing Degree Days 16 (Base 50)    
Moisture  
Dew Point 54 °F    
Average Humidity 70    
Maximum Humidity 100    
Minimum Humidity 39    
Precipitation  
Precipitation 0.00 in 0.15 in 4.42 in (2009)
Month to date precipitation 1.24 3.00  
Year to date precipitation 24.62 30.48  
Sea Level Pressure  
Sea Level Pressure 29.96 in    
Wind  
Wind Speed 4 mph (North)    
Max Wind Speed 13 mph    
Max Gust Speed 17 mph    
Visibility 10 miles    
Events      
T = Trace of Precipitation, MM = Missing Value Source: NWS Daily Summary

Daily Weather History Graph

Daily Weather History Graph

Search for Another Location

Airport:

Trip Planner

Search our weather history database for the weather conditions in past years. The results will help you decide how hot, cold, wet, or windy it might be!

Date:

Astronomy

Sep. 21, 2013 Rise Set
Actual Time 7:10 AM CDT 7:21 PM CDT
Civil Twilight 6:45 AM CDT 7:47 PM CDT
Nautical Twilight 6:15 AM CDT 8:17 PM CDT
Astronomical Twilight 5:44 AM CDT 8:47 PM CDT
Moon 8:39 PM CDT (9/21) 9:25 AM CDT (9/21)
Length of Visible Light 13h 01m
Length of Day
12h 10m
Waning Gibbous, 94% of the Moon is Illuminated
Sep 21
Waning Gibbous
Sep 26
Last Quarter
Oct 4
New
Oct 11
First Quarter
Oct 18
Full

Hourly Weather History & Observations

Time (CDT) Temp. Dew Point Humidity Pressure Visibility Wind Dir Wind Speed Gust Speed Precip Events Conditions
12:53 AM 57.9 °F 55.9 °F 93% 29.98 in 10.0 mi Calm Calm - N/A   Partly Cloudy
1:53 AM 57.0 °F 55.9 °F 96% 29.98 in 10.0 mi Calm Calm - N/A   Clear
2:53 AM 54.0 °F 54.0 °F 100% 29.99 in 10.0 mi NNW 3.5 mph - N/A   Clear
3:53 AM 55.9 °F 55.0 °F 97% 29.98 in 10.0 mi Calm Calm - N/A   Clear
4:53 AM 54.0 °F 54.0 °F 100% 29.99 in 10.0 mi NW 4.6 mph - N/A   Clear
5:53 AM 53.1 °F 53.1 °F 100% 29.99 in 10.0 mi NW 3.5 mph - N/A   Clear
6:53 AM 53.1 °F 52.0 °F 96% 30.00 in 10.0 mi NNW 3.5 mph - N/A   Clear
7:53 AM 54.0 °F 54.0 °F 100% 30.01 in 10.0 mi NNW 3.5 mph - N/A   Clear
8:53 AM 59.0 °F 55.9 °F 90% 30.01 in 10.0 mi North 4.6 mph - N/A   Clear
9:53 AM 64.0 °F 57.9 °F 80% 30.03 in 10.0 mi NNW 4.6 mph - N/A   Clear
10:53 AM 71.1 °F 54.0 °F 55% 30.02 in 10.0 mi Variable 4.6 mph - N/A   Clear
11:53 AM 73.9 °F 52.0 °F 46% 30.01 in 10.0 mi NE 8.1 mph - N/A   Clear
12:53 PM 75.9 °F 50.0 °F 40% 29.99 in 10.0 mi ENE 8.1 mph - N/A   Clear
1:53 PM 78.1 °F 51.1 °F 39% 29.97 in 10.0 mi North 8.1 mph - N/A   Clear
2:53 PM 78.1 °F 52.0 °F 40% 29.95 in 10.0 mi Variable 5.8 mph - N/A   Clear
3:53 PM 79.0 °F 52.0 °F 39% 29.93 in 10.0 mi North 8.1 mph - N/A   Clear
4:53 PM 79.0 °F 53.1 °F 40% 29.91 in 10.0 mi North 9.2 mph - N/A   Clear
5:53 PM 78.1 °F 54.0 °F 43% 29.91 in 10.0 mi North 9.2 mph - N/A   Clear
6:53 PM 75.0 °F 54.0 °F 48% 29.91 in 10.0 mi NE 4.6 mph - N/A   Clear
7:53 PM 72.0 °F 55.0 °F 55% 29.90 in 10.0 mi NE 5.8 mph - N/A   Clear
8:53 PM 66.9 °F 57.0 °F 70% 29.92 in 10.0 mi East 3.5 mph - N/A   Clear
9:53 PM 64.9 °F 57.0 °F 75% 29.91 in 10.0 mi Calm Calm - N/A   Clear
10:53 PM 64.0 °F 57.0 °F 78% 29.92 in 10.0 mi ESE 3.5 mph - N/A   Clear
11:53 PM 61.0 °F 57.0 °F 87% 29.92 in 10.0 mi Calm Calm - N/A   Clear